Burnet, TX

10:04 AM CDT on April 22, 2018 (GMT -0500)
Burnet Municipal-Craddock

Weather History for KBMQ - December, 2010

Change the Weather History Date:

Sunday, December 12, 2010

  Actual Average Record
Temperature  
Mean Temperature 44 °F -  
Max Temperature 52 °F 58 °F 80 °F (2004)
Min Temperature 36 °F 37 °F 23 °F (2000)
Degree Days  
Heating Degree Days 21    
Moisture  
Dew Point 11 °F    
Average Humidity 27    
Maximum Humidity 39    
Minimum Humidity 17    
Precipitation  
Precipitation 0.00 in - - ()
Sea Level Pressure  
Sea Level Pressure 30.36 in    
Wind  
Wind Speed 8 mph (NNW)    
Max Wind Speed 15 mph    
Max Gust Speed 22 mph    
Visibility 10 miles    
Events      
Averages and records for this station are not official NWS values.
T = Trace of Precipitation, MM = Missing Value Source: NWS Daily Summary

Daily Weather History Graph

Daily Weather History Graph

Search for Another Location

Airport or City:

Astronomy

Dec. 12, 2010 Rise Set
Actual Time 7:21 AM CST 5:32 PM CST
Civil Twilight 6:54 AM CST 5:58 PM CST
Nautical Twilight 6:24 AM CST 6:28 PM CST
Astronomical Twilight 5:55 AM CST 6:58 PM CST
Moon 11:59 AM CST (12/12) No Moon Set
Length of Visible Light 11h 04m
Length of Day
10h 11m
Waxing Crescent, 42% of the Moon is Illuminated
Dec 12
Waxing Crescent
Dec 13
First Quarter
Dec 21
Full
Dec 27
Last Quarter
Jan 4
New

Hourly Weather History & Observations

Time (CST) Temp. Windchill Dew Point Humidity Pressure Visibility Wind Dir Wind Speed Gust Speed Precip Events Conditions
12:53 AM 45.0 °F 40.6 °F 12.9 °F 27% 30.25 in 10.0 mi North 8.1 mph - N/A   Clear
2:53 AM 43.0 °F 38.2 °F 12.0 °F 28% 30.28 in 10.0 mi NNW 8.1 mph 18.4 mph N/A   Clear
3:53 AM 39.9 °F 35.8 °F 12.0 °F 32% 30.30 in 10.0 mi North 5.8 mph - N/A   Clear
4:53 AM 39.0 °F 34.0 °F 12.0 °F 33% 30.31 in 10.0 mi North 6.9 mph - N/A   Clear
5:53 AM 37.0 °F 32.4 °F 12.0 °F 36% 30.35 in 10.0 mi NNW 5.8 mph - N/A   Clear
6:53 AM 36.0 °F 30.3 °F 12.9 °F 39% 30.37 in 10.0 mi NNW 6.9 mph - N/A   Clear
7:53 AM 36.0 °F 30.3 °F 12.9 °F 39% 30.40 in 10.0 mi NNW 6.9 mph - N/A   Clear
8:53 AM 39.0 °F 32.8 °F 12.9 °F 34% 30.42 in 10.0 mi NNW 9.2 mph 16.1 mph N/A   Clear
9:53 AM 41.0 °F 35.2 °F 12.9 °F 32% 30.43 in 10.0 mi NW 9.2 mph - N/A   Clear
10:53 AM 45.0 °F 40.1 °F 12.0 °F 26% 30.44 in 10.0 mi NNW 9.2 mph - N/A   Clear
11:53 AM 46.0 °F 39.6 °F 12.0 °F 25% 30.42 in 10.0 mi NW 15.0 mph 21.9 mph N/A   Clear
12:53 PM 48.0 °F - 10.9 °F 22% 30.37 in 10.0 mi NNW 11.5 mph 20.7 mph N/A   Clear
1:53 PM 51.1 °F - 9.0 °F 18% 30.35 in 10.0 mi North 9.2 mph 21.9 mph N/A   Clear
2:53 PM 52.0 °F - 8.1 °F 17% 30.34 in 10.0 mi NW 11.5 mph 20.7 mph N/A   Clear
3:53 PM 51.1 °F - 7.0 °F 17% 30.34 in 10.0 mi NW 10.4 mph 18.4 mph N/A   Clear
4:53 PM 50.0 °F - 7.0 °F 18% 30.35 in 10.0 mi NW 8.1 mph - N/A   Clear
5:53 PM 46.0 °F 43.1 °F 7.0 °F 20% 30.35 in 10.0 mi North 5.8 mph - N/A   Clear
6:53 PM 43.0 °F 39.5 °F 8.1 °F 24% 30.36 in 10.0 mi North 5.8 mph - N/A   Clear
7:53 PM 39.0 °F 34.8 °F 9.0 °F 29% 30.37 in 10.0 mi North 5.8 mph - N/A   Clear
8:53 PM 37.9 °F 32.7 °F 9.0 °F 30% 30.38 in 10.0 mi North 6.9 mph - N/A   Clear